#timestamp,LO_Frequency,Hit,StdDev 
1528261215.7,286047000.3,N
1528261235.5,286046998.1,N
1528261255.3,286046999.0,N
1528261275.2,286046998.6,N
1528261295.0,286046998.5,N
1528261295.9,286046998.5,N
1528261315.7,286047000.7,N
1528261335.6,286046998.2,N
1528261355.4,286047000.3,N
1528261375.3,286047000.6,N
1528261395.1,286047000.1,N
1528261415.8,286047001.0,N
1528261435.7,286046998.6,N
1528261455.5,286047000.9,N
1528261475.4,286047000.7,N
1528261495.2,286046998.7,N
1528261515.0,286046998.9,N
1528261515.9,286046998.9,N
1528261535.8,286046998.8,N
1528261555.6,286047001.0,N
1528261575.4,286047002.6,N
1528261595.3,286047004.2,Y
1528261615.1,286047003.9,P
1528261635.9,286047003.9,N
1528261655.7,286047001.8,N
1528261675.5,286047003.6,N
1528261695.4,286047003.3,N
1528261715.2,286047003.5,N
1528261735.0,286047003.2,N
1528261735.9,286047003.2,N
1528261755.8,286047007.4,Y
1528261775.6,286047005.5,P
1528261795.5,286047004.0,P
1528261815.3,286047004.2,P
1528261835.1,286047004.4,Y
1528261855.9,286046998.8,P
1528261875.7,286046999.0,N
1528261895.6,286046998.3,N
1528261915.4,286047000.3,N
1528261935.2,286047002.4,N
1528261955.1,286047002.3,N
1528261956.0,286047002.3,N
1528261975.8,286047000.9,N
1528261995.6,286047000.6,N
1528262015.5,286047000.0,N
1528262035.3,286046999.8,N
1528262055.2,286047000.5,N
1528262075.9,286046998.6,N
1528262095.7,286046998.8,N
1528262115.6,286046996.9,N
1528262135.4,286046997.6,N
1528262155.2,286046998.9,N
1528262175.1,286046999.5,N
1528262176.0,286046999.5,N
1528262195.8,286046999.3,N
1528262215.7,286046998.3,N
1528262235.5,286046999.1,N
1528262255.3,286046997.3,N
1528262275.2,286046995.4,N
1528262295.0,286046998.0,N
1528262295.9,286046998.0,N
1528262315.8,286046996.4,N
1528262335.6,286046996.0,N
1528262355.4,286046993.7,Y
1528262375.3,286046996.0,P
1528262395.1,286046995.4,N
1528262415.8,286046993.5,P
1528262435.7,286046994.5,N
1528262455.5,286046994.0,Y
1528262475.4,286046999.1,P
1528262495.2,286046996.6,N
1528262515.0,286046999.5,N
1528262515.9,286046999.5,N
1528262535.8,286046999.5,N
1528262555.6,286047001.1,N
1528262575.4,286046999.6,N
1528262595.3,286046999.3,N
1528262615.1,286046998.1,N
1528262635.9,286046998.3,N
1528262655.7,286047001.1,N
1528262675.5,286046999.1,N
1528262695.4,286046999.6,N
1528262715.2,286046999.5,N
1528262735.0,286046996.8,N
1528262735.9,286046996.8,N
1528262755.8,286046999.5,N
1528262775.6,286046997.6,N
1528262795.5,286046996.9,N
1528262815.3,286046997.2,N
1528262865.2,286046997.2,E
1528262875.1,286046999.4,N
1528262876.0,286046999.4,P
1528262895.8,286046999.4,P
1528262915.7,286046998.9,Y
1528262935.5,286047001.0,P
1528262955.3,286046999.4,N
1528262975.2,286046998.8,N
1528262995.9,286047000.3,N
1528263015.7,286047001.0,N
1528263035.6,286047001.1,N
1528263055.4,286047001.0,N
1528263075.2,286047000.7,N
1528263095.1,286046998.4,N
1528263096.0,286046998.4,N
1528263115.8,286046998.6,N
1528263135.7,286046998.3,N
1528263155.5,286047000.8,N
1528263175.3,286046998.5,N
1528263195.2,286046996.7,N
1528263215.0,286046996.5,N
1528263215.9,286046996.5,N
1528263235.8,286046997.5,N
1528263255.6,286046995.7,N
1528263275.4,286046997.6,N
1528263295.3,286046997.2,N
1528263315.1,286046997.9,N
1528263335.8,286046997.3,N
1528263355.7,286046996.7,N
1528263375.5,286046999.3,N
1528263395.4,286046999.5,N
1528263415.2,286046997.7,N
1528263435.0,286046995.6,N
1528263435.9,286046995.6,N
1528263455.8,286046996.1,N
1528263475.6,286046995.4,N
1528263495.4,286046995.2,N
1528263515.3,286046997.6,N
1528263535.1,286046996.9,N
1528263555.9,286046999.2,N
1528263575.7,286046997.2,N
1528263595.5,286046997.3,N
1528263615.4,286046997.9,N
1528263635.2,286046997.5,N
1528263655.0,286046997.8,N
1528263655.9,286046997.8,N
1528263675.8,286046997.7,N
1528263695.6,286046995.5,Y
1528263715.5,286046998.4,P
1528263735.3,286047001.2,N
1528263755.1,286047001.0,N
1528263775.9,286047001.1,N
1528263795.7,286046998.4,N
1528263815.5,286047000.7,N
1528263835.4,286046998.6,N
1528263855.2,286047000.2,N
1528263875.1,286047000.1,N
1528263876.0,286047000.1,N
1528263895.8,286047001.1,N
1528263915.6,286046998.5,N
1528263935.5,286047000.6,N
1528263955.3,286046999.7,N
1528263975.1,286047000.0,N
1528263995.9,286046998.1,N
1528264015.7,286046998.3,N
1528264035.6,286046998.6,N
1528264055.4,286046998.1,N
1528264075.2,286046999.4,N
1528264095.1,286046998.8,N
1528264096.0,286046998.8,N
1528264115.8,286046998.3,N
1528264135.6,286046998.9,N
1528264155.5,286046998.4,N
1528264175.3,286046999.5,N
1528264195.2,286046999.5,N
1528264215.9,286046999.4,N
1528264235.7,286046998.4,N
1528264255.6,286046996.8,Y
1528264275.4,286046998.6,P
1528264295.3,286046998.6,P
1528264315.1,286046998.9,P
1528264335.8,286046999.3,N
1528264355.7,286046996.9,Y
1528264375.5,286046996.8,P
1528264395.4,286046995.2,P
1528264415.2,286046995.3,P
1528264435.0,286046995.4,Y
1528264435.9,286046995.4,P
1528264455.8,286047000.5,N
1528264475.6,286046998.2,N
1528264495.5,286046998.2,N
1528264515.3,286047000.5,N
1528264535.1,286047001.0,N
1528264555.9,286047002.6,N
1528264575.7,286047000.0,N
1528264595.6,286047001.0,N
1528264615.4,286046998.7,N
1528264635.2,286046998.8,N
1528264655.1,286046998.2,N
1528264656.0,286046998.2,N
1528264675.8,286047000.0,N
1528264695.7,286047002.4,N
1528264715.5,286047004.0,N
1528264735.3,286047002.0,N
1528264755.2,286047002.3,N
1528264775.0,286047000.5,N
1528264775.9,286047000.5,N
1528264795.7,286047000.6,N
